Dyersburg, TN

12:28 PM CST on December 14, 2019 (GMT -0600)
Dyersburg Municipal

Weather History for KDYR - October, 2019

Change the Weather History Date:

Wednesday, October 2, 2019

  Actual Average Record
Temperature  
Mean Temperature 80 °F -  
Max Temperature 93 °F 74 °F 89 °F (2006)
Min Temperature 66 °F 52 °F 39 °F (2003)
Cooling Degree Days 14    
Growing Degree Days 30 (Base 50)    
Moisture  
Dew Point 68 °F    
Average Humidity 72    
Maximum Humidity 97    
Minimum Humidity 41    
Precipitation  
Precipitation 0.00 in - - ()
Sea Level Pressure  
Sea Level Pressure 30.01 in    
Wind  
Wind Speed 2 mph ()    
Max Wind Speed 13 mph    
Max Gust Speed 17 mph    
Visibility 10.0 miles    
Events      
Averages and records for this station are not official NWS values.
T = Trace of Precipitation, MM = Missing Value Source: Averaged Metar Reports

Daily Weather History Graph

Daily Weather History Graph

Search for Another Location

Airport or City:

Astronomy

Oct. 02, 2019 Rise Set
Actual Time 6:53 AM CDT 6:40 PM CDT
Civil Twilight 6:27 AM CDT 7:05 PM CDT
Nautical Twilight 5:58 AM CDT 7:35 PM CDT
Astronomical Twilight 5:28 AM CDT 8:05 PM CDT
Moon 11:11 AM CDT (10/2) 9:42 PM CDT (10/2)
Length of Visible Light 12h 37m
Length of Day
11h 46m
Waxing Crescent, 20% of the Moon is Illuminated
Oct 2
Waxing Crescent
Oct 5
First Quarter
Oct 13
Full
Oct 21
Last Quarter
Oct 27
New

Hourly Weather History & Observations

Time (CDT) Temp. Heat Index Dew Point Humidity Pressure Visibility Wind Dir Wind Speed Gust Speed Precip Events Conditions
12:56 AM 71.1 °F - 69.1 °F 93% 30.01 in 10.0 mi Calm Calm - N/A   Clear
1:56 AM 70.0 °F - 69.1 °F 97% 30.00 in 10.0 mi Calm Calm - N/A   Clear
2:56 AM 69.1 °F - 68.0 °F 96% 29.99 in 10.0 mi Calm Calm - N/A   Clear
3:56 AM 71.1 °F - 68.0 °F 90% 30.00 in 10.0 mi South 4.6 mph - N/A   Clear
4:56 AM 70.0 °F - 66.9 °F 90% 30.01 in 10.0 mi Calm Calm - N/A   Clear
5:56 AM 68.0 °F - 66.9 °F 96% 30.03 in 10.0 mi Calm Calm - N/A   Clear
6:56 AM 66.9 °F - 66.0 °F 97% 30.05 in 10.0 mi Calm Calm - N/A   Clear
7:56 AM 72.0 °F - 69.1 °F 91% 30.06 in 10.0 mi South 3.5 mph - N/A   Clear
8:56 AM 79.0 °F - 70.0 °F 74% 30.07 in 10.0 mi Calm Calm - N/A   Clear
9:56 AM 84.0 °F 88.4 °F 70.0 °F 63% 30.07 in 10.0 mi West 4.6 mph - N/A   Clear
10:56 AM 89.1 °F 95.0 °F 71.1 °F 55% 30.07 in 10.0 mi West 5.8 mph - N/A   Clear
11:56 AM 91.0 °F 95.6 °F 69.1 °F 48% 30.06 in 10.0 mi West 9.2 mph - N/A   Clear
12:56 PM 91.9 °F 96.9 °F 69.1 °F 47% 30.04 in 10.0 mi SW 12.7 mph 17.3 mph N/A   Clear
1:56 PM 93.0 °F 97.9 °F 69.1 °F 45% 30.01 in 10.0 mi SSW 8.1 mph 16.1 mph N/A   Clear
2:56 PM 93.0 °F 96.4 °F 66.9 °F 42% 29.99 in 10.0 mi WSW 10.4 mph - N/A   Clear
3:56 PM 93.0 °F 97.4 °F 68.0 °F 44% 29.98 in 10.0 mi West 6.9 mph - N/A   Clear
4:56 PM 93.0 °F 95.9 °F 66.0 °F 41% 29.97 in 10.0 mi Variable 6.9 mph - N/A   Clear
5:56 PM 91.0 °F 93.0 °F 64.9 °F 42% 29.97 in 10.0 mi SW 3.5 mph - N/A   Clear
6:56 PM 81.0 °F 83.3 °F 66.9 °F 62% 29.98 in 10.0 mi Calm Calm - N/A   Clear
7:56 PM 78.1 °F - 68.0 °F 71% 29.99 in 10.0 mi Calm Calm - N/A   Clear
8:56 PM 75.0 °F - 69.1 °F 82% 29.99 in 10.0 mi Calm Calm - N/A   Clear
9:56 PM 73.9 °F - 66.9 °F 79% 29.99 in 10.0 mi Calm Calm - N/A   Clear
10:56 PM 72.0 °F - 68.0 °F 87% 29.99 in 10.0 mi South 3.5 mph - N/A   Clear
11:56 PM 71.1 °F - 68.0 °F 90% 30.00 in 10.0 mi Calm Calm - N/A   Clear